Hourly Data Report for December 29, 2020

SHEARWATER RCS
NOVA SCOTIA
Current Station Operator: ECCC - MSC

44°37'47.000" N
63°30'48.000" W
24.00 m
8205092
71264
AAW

Download Data

Hourly Data (December 2020)
Hourly Data Report for December 29, 2020
TIME
LST
Temp Definition
°C
Dew Point Definition
°C
Rel Hum Definition
%
Precip. Amount Definition
mm

Wind Dir Definition
10's deg

Wind Spd Definition
km/h
Visibility Definition
km
Stn Press Definition
kPa
Hmdx Definition


Wind Chill Definition


Weather Definition


00:00 6.8 6.2 96 0.0 17 13   101.60     LegendNANA
01:00 6.7 6.2 97 0.0 16 9   101.49     LegendNANA
02:00 6.8 6.3 96 0.0 15 10   101.37     LegendNANA
03:00 6.6 6.0 96 0.0 16 8   101.30     LegendNANA
04:00 7.1 5.7 91 0.0 16 11   101.16     LegendNANA
05:00 6.9 5.4 90 0.0 15 8   101.05     LegendNANA
06:00 6.5 5.8 95 2.1 18 10   101.01     LegendNANA
07:00 6.5 6.0 97 3.0 14 11   100.86     LegendNANA
08:00 7.6 7.1 96 1.5 22 17   100.83     LegendNANA
09:00 7.8 6.8 93 0.0 24 11   100.83     LegendNANA
10:00 8.3 6.5 89 0.0 26 10   100.86     LegendNANA
11:00 7.7 4.9 82 0.3 25 12   100.82     LegendNANA
12:00 5.0 -1.0 65 0.0 31 19   100.78     LegendNANA
13:00 5.1 -0.1 69 0.0 30 16   100.75     LegendNANA
14:00 4.3 -1.7 65 0.0 31 20   100.75     LegendNANA
15:00 3.9 -2.5 63 0.0 30 19   100.78     LegendNANA
16:00 3.4 -4.4 57 0.0 30 17   100.85     LegendNANA
17:00 1.9 -4.8 61 0.0 29 16   100.92     LegendNANA
18:00 0.9 -5.3 63 0.0 29 17   100.98     LegendNANA
19:00 0.1 -6.3 62 0.0 31 18   101.08     LegendNANA
20:00 -0.8 -7.0 62 0.0 31 21   101.17   -6 LegendNANA
21:00 -2.0 -7.9 64 0.0 31 22   101.26   -8 LegendNANA
22:00 -3.6 -11.2 56 0.0 30 28   101.33   -11 LegendNANA
23:00 -5.1 -14.4 48 0.0 31 31   101.36   -13 LegendNANA

Notes on Data Quality.

Legend

  • E = Estimated
  • M = Missing
  • NA = Not Available*
  • [empty] = Indicates an unobserved value
Date modified: